This demonstration page uses our WeatherBlox Daily Observations layout. Learn more.

Left ArrowRight Arrow

44.8408, -93.29828

Hourly Observations for September 1, 2018

Temp ( °F °C ) Dew Point ( °F °C ) Humidity (%) Winds ( mph kmh ) Pressure ( in mb ) Visibility ( mi km ) Precip ( " mm )
12:53 am 00:53 Mostly Clear 73 22.8 70 21.1 90 90 S 9 15 29.78 1008 10 16 0.00 0.00
1:53 am 01:53 Partly Cloudy 73 22.8 69 20.6 87 87 SSW 7 11 29.79 1009 10 16 0.00 0.00
2:53 am 02:53 Cloudy 73 22.8 69 20.6 87 87 SW 6 9 29.78 1009 10 16 0.00 0.00
3:53 am 03:53 Cloudy 73 22.8 70 21.1 90 90 Calm 29.77 1008 10 16 0.00 0.00
4:33 am 04:33 Cloudy 73 22.8 70 21.1 90 90 Calm 29.77 1008 10 16 0.00 0.00
4:49 am 04:49 Cloudy 72 22 70 21 94 94 S 5 7 29.77 1008 10 16 0.00 0.00
4:53 am 04:53 Cloudy 72 22.2 70 21.1 94 94 SSE 5 7 29.80 1009 10 16 0.00 0.00
5:48 am 05:48 Cloudy 72 22 70 21 94 94 S 5 7 29.80 1009 10 16 0.00 0.00
5:53 am 05:53 Cloudy 72 22.2 70 21.1 94 94 S 5 7 29.81 1009 10 16 0.00 0.00
6:53 am 06:53 Cloudy 73 22.8 70 21.1 90 90 SW 5 7 29.84 1011 10 16 0.00 0.00
7:53 am 07:53 Cloudy 73 22.8 70 21.1 90 90 S 7 11 29.87 1012 10 16 0.00 0.00
8:04 am 08:04 Cloudy 73 22.8 70 21.1 90 90 S 7 11 29.88 1012 10 16 0.00 0.00
8:53 am 08:53 Cloudy 73 22.8 70 21.1 90 90 S 8 13 29.90 1012 10 16 0.00 0.00
9:31 am 09:31 Cloudy 74 23.3 69 20.6 85 85 S 7 11 29.88 1012 10 16 0.00 0.00
9:53 am 09:53 Mostly Cloudy 74 23.3 69 20.6 85 85 SSW 7 11 29.89 1012 10 16 0.00 0.00
10:53 am 10:53 Mostly Cloudy 79 26.1 70 21.1 74 74 Calm 29.88 1012 10 16 0.00 0.00
11:53 am 11:53 Mostly Cloudy 80 26.7 70 21.1 71 71 SSE 8 13 29.88 1012 10 16 0.00 0.00
12:53 pm 12:53 Partly Cloudy 83 28.3 70 21.1 65 65 Calm 29.87 1011 10 16 0.00 0.00
1:53 pm 13:53 Partly Cloudy 83 28.3 69 20.6 63 63 W 5 7 29.86 1011 10 16 0.00 0.00
2:53 pm 14:53 Partly Cloudy 85 29.4 69 20.6 59 59 WSW 9 15 29.86 1011 10 16 0.00 0.00
3:53 pm 15:53 Partly Cloudy 86 30 70 21.1 59 59 WNW 8 13 29.84 1011 10 16 0.00 0.00
4:53 pm 16:53 Partly Cloudy 86 30 69 20.6 57 57 W 6 9 29.85 1011 10 16 0.00 0.00
5:53 pm 17:53 Partly Cloudy 85 29.4 69 20.6 59 59 NW 7 11 29.86 1011 10 16 0.00 0.00
6:53 pm 18:53 Partly Cloudy 84 28.9 69 20.6 61 61 NNW 5 7 29.86 1011 10 16 0.00 0.00
7:53 pm 19:53 Partly Cloudy 82 27.8 67 19.4 60 60 Calm 29.86 1011 10 16 0.00 0.00
8:53 pm 20:53 Partly Cloudy 80 26.7 68 20 67 67 E 7 11 29.87 1012 10 16 0.00 0.00
9:53 pm 21:53 Partly Cloudy 77 25 72 22.2 85 85 SE 6 9 29.88 1012 10 16 0.00 0.00
10:53 pm 22:53 Partly Cloudy 75 23.9 72 22.2 90 90 SE 7 11 29.89 1012 10 16 0.00 0.00
11:53 pm 23:53 Partly Cloudy 74 23.3 72 22.2 94 94 SE 5 7 29.88 1012 10 16 0.00 0.00

Powered by AerisWeather